Location: St. Louis
(38.6270°N, 90.1994°W)
Time: 09:03:05
(UTC-06:00)

Transit 2A - Pass Details

Date: 01 December 2021
Orbit: 591 x 967 km, 66.7° (Epoch: 20 January)

Event Time Altitude Azimuth Distance (km) Brightness Sun altitude
Rises 22:44:03 0° 156° (SSE) 3,208 - -68.1°
Reaches altitude 10° 22:47:28 10° 132° (SE) 2,372 - -68.6°
Maximum altitude 22:50:18 14° 101° (E) 2,143 - -69.0°
Drops below altitude 10° 22:53:17 10° 70° (ENE) 2,511 - -69.4°
Sets 22:57:03 0° 48° (NE) 3,528 - -69.8°
